OBJECT M, 51835

Orbit data source: Space-Track

You're viewing an Uncataloged Satellite

Recently launched and/or uncataloged satellites may have evolving metadata. Metadata may include but not limited to: Owner, Maufacturer, Bus, Motor, and Mission.

OBJECT M, 51835 is a satellite owned by Changguang WJ (CN) in SSO that was launched on Sun, 27 Feb 2022 UTC via a CHANG ZHENG 8 launch vehicle from the Wenchang Satellite Launch Center (WSC). Unknown objects in Earth's orbit typically refer to objects detected orbiting the Earth but have not yet been identified or cataloged. These objects could be anything from previously untracked satellites, spent rocket stages, debris from satellite collisions, or even natural meteoroids temporarily captured by Earth's gravity.

Loading next visibility...
Identifier
51835, 2022-019M
Orbit
SSO
Last TLE update
5 hours ago
Origin
Manufacturer
Changguang WJ
Mission
Operational Commercial Imaging
Bus & Motor
JL-1, Unknown motor
Mass
43 kg wet, 43 kg dry
Launch date (UTC)
2022-02-27 (3 years ago)
Launch vehicle
CHANG ZHENG 8
Launch site
Wenchang Satellite Launch Center (WSC)
Object type
Unknown
Shape & HBR
Box + 2 Pan, 1.5 m
Radar Cross Section
2.000 m², Medium (>0.1 m² and < 1m²)

Expand to show TLE details & history

TLE from 5 hours ago
0 OBJECT M
1 51835U 22019M   25182.53325901  .00017913  00000-0  41971-3 0  9998
2 51835  97.3973 262.8396 0004724 351.4868   8.6298 15.42142854185452
Epoch: 2025-07-01T12:47Z
TLE epoch observation values (Epoch: 2025-07-01T12:47:53.578Z)
Latitude
-0.00004°
Longitude
151.03902°
Altitude
439.722 km
Speed
7.65 km/s
True Right ascension
17h 31m 21s
True Declination
0° 00' 00"
Sunlit
Object was in full shadow at epoch
Visualization orbit readout
Latitude
51.70628°
Longitude
-19.32913°
Altitude
450.542 km
Speed
7.646 km/s
Apparent Right ascension
15h 10m 46s
Apparent Declination
55° 23' 00"
Sunlit
Object is in daylight
Visualization observer readout
Local Sidereal Time
05:41:01
Azimuth
20.624° NNE
Elevation
10.526°
Doppler factor
1
Orbital elements
Apogee altitude
439.942 km
Perigee altitude
433.503 km
Semi-major axis
6,814.859 km
Eccentricity
0.00047
Inclination
97.3973°
RAAN
262.8396°
Arg. of periapsis
351.4868°
True anomaly
Unknown
Mean anomaly
8.6298°
Eccentric anomaly
Unknown
Mean motion
3.85796 °/min
Orbital period
93.31 mins
BSTAR
0.00041971
Loading maneuver chart data...
Loading SW <> Apogee altitude chart data...
Loading historical data...
Loading historical data...
Loading historical data...
Loading historical data...
Loading historical data...
Loading historical data...
Loading historical data...

OBJECT M Visibility forecast

Observer location: undefined°, undefined°

Span
Click to sort rows by Start time (UTC) header in descending order
Start Az.
Max El. time (UTC)
Max El. Az.
Max El.
End time (UTC)
End Az.
6 mins2025-07-01 18:01:19.918Z20.765° NNE2025-07-01 18:04:19.918Z81.413° E39.267°2025-07-01 18:07:19.918Z178.22° S
4 mins2025-07-02 06:04:19.918Z224.947° SW2025-07-02 06:05:19.918Z249.207° W21.488°2025-07-02 06:08:19.918Z317.709° NNW
|